Location: Antichan
(42.9728°N, 0.6667°E)
Time: 13:39:18
(UTC+00:00)

Cosmos 1437 Rocket - Pass Details

Date: 15 August 2020
Orbit: 505 x 563 km, 81.2° (Epoch: 24 September)

Event Time Altitude Azimuth Distance (km) Brightness Sun altitude
Rises 21:00:16 0° 350° (N) 2,622 7.1 -19.8°
Reaches altitude 10° 21:02:24 10° 351° (N) 1,729 6.1 -20.1°
Maximum altitude 21:06:12 84° 80° (E) 515 2.5 -20.6°
Enters shadow 21:06:32 72° 150° (SSE) 536 2.5 -20.6°
